Location: Linz
(48.3300°N, 14.3000°E)
Time: 08:59:55
(UTC+01:00)

OTV 5 (USA 277) - Pass Details

Date: 11 November 2017
Orbit: 404 x 417 km, 43.0° (Epoch: 07 September)

Event Time Altitude Azimuth Distance (km) Brightness Sun altitude
Exits shadow 04:22:26 12° 139° (SE) 1,351 ? -26.9°
Drops below altitude 10° 04:23:09 10° 126° (SE) 1,454 ? -26.8°
Sets 04:26:12 0° 96° (E) 2,317 ? -26.3°
